RH
83 83 88 89 90 97 94 93 96 91 89 91 94 94 92 92 94 97 94 90 92 89 88 90 87 87 92 94 94 96 95 96 95 93 93 86 93 98 97 90 89 94 96
83 89 88 88 91 95 94 91 89 89 93 98 93 96 95 98 100 98 96 94 90 86 84 90 87 92 95 96 95 95 96 92 94 96 94 90 88 91 94 90 88 95 98
92 90 90 88 89 92 94 95 79 92 95 94 94 94 97 99 98 96 93 89 87 85 86 90 93 95 96 96 95 94 87 88 88 92 88 90 92 94 98 87 86 95 97
92 92 90 90 87 90 96 95 91 95 94 92 96 97 95 95 95 92 90 86 85 83 86 95 96 92 95 76 81 76 72 81 84 84 89 90 91 92 95 89 95 89 90
95 92 91 90 85 88 92 88 85 89 98 95 89 86 92 96 94 91 88 89 89 89 97 97 89 89 79 75 70 64 62 51 67 68 83 91 89 83 85 89 86 83 78
94 89 92 87 86 84 84 84 83 92 95 90 86 89 90 94 92 91 93 94 87 91 90 92 84 74 74 72 69 54 36 33 36 49 65 78 88 87 89 90 86 84 82
96 90 86 86 86 79 81 83 86 90 95 97 92 94 94 92 92 94 94 77 79 91 94 90 78 71 72 69 66 53 37 36 40 52 67 78 86 88 88 89 89 90 89
88 88 86 85 86 81 77 80 82 88 92 92 90 92 91 92 94 95 84 84 86 93 91 78 72 71 70 68 70 64 48 43 45 49 58 71 85 87 87 87 90 91 90
86 89 85 86 84 82 82 74 85 85 86 86 87 88 88 88 93 86 86 85 91 96 83 76 72 70 70 68 70 71 66 54 50 55 57 69 84 86 87 88 91 90 91
90 90 89 87 87 84 86 78 85 88 76 76 85 86 91 88 91 91 84 87 88 82 75 74 72 68 72 70 71 72 72 69 63 56 57 65 79 83 85 90 89 91 93
99 85 93 90 88 84 86 86 89 93 78 63 57 81 89 85 79 84 80 82 66 68 71 70 63 63 71 74 74 74 74 73 71 62 59 63 70 73 70 80 82 90 93
100 99 92 90 87 87 88 90 93 99 89 71 54 48 64 70 69 65 64 65 65 62 59 56 54 55 68 71 72 72 73 73 72 68 65 66 75 68 62 60 62 74 88
95 100 95 92 86 90 92 90 89 88 95 87 70 59 47 52 59 60 62 64 64 64 62 62 58 54 57 67 68 68 69 73 71 70 70 69 73 77 71 66 64 65 68
98 100 100 90 92 93 89 88 78 79 83 91 86 76 70 66 59 54 51 53 52 52 53 54 51 60 59 62 64 62 63 66 68 69 69 69 73 79 80 76 72 70 70
97 100 99 87 98 92 86 84 78 66 68 73 85 88 81 78 75 72 65 62 60 59 55 47 54 61 60 59 56 55 52 58 62 66 66 66 69 75 82 83 81 81 80
94 99 100 90 91 91 85 81 73 68 76 76 70 74 87 82 79 76 74 72 74 70 71 71 70 74 76 73 65 63 58 50 53 57 61 62 67 72 75 91 94 91 93
96 100 100 100 90 87 81 76 74 70 79 73 60 56 61 69 77 79 79 79 74 75 77 79 82 82 80 77 74 73 70 63 52 51 55 59 66 70 71 73 92 95 99
94 100 100 100 94 82 80 77 76 74 76 69 63 65 66 62 63 70 78 76 75 77 80 80 81 82 76 73 69 65 67 65 62 52 54 60 66 68 70 71 74 78 82
88 87 92 97 96 87 81 77 74 72 74 70 66 61 61 60 63 66 68 68 74 78 80 81 82 81 72 68 66 64 61 61 60 57 54 58 61 65 68 70 72 74 77
94 71 88 99 93 85 80 81 81 75 77 76 68 57 56 58 61 64 64 64 66 79 82 82 79 75 71 68 68 66 65 66 66 65 67 67 68 70 70 68 71 73 73
69 71 82 82 98 96 85 92 88 82 80 74 68 55 52 51 52 56 61 65 70 78 72 73 69 70 68 70 72 71 70 68 69 70 71 71 73 74 73 74 72 74 73
81 68 69 70 81 81 91 88 90 78 75 70 64 64 66 58 59 55 56 62 66 67 68 68 68 66 68 73 75 82 90 75 76 78 76 75 76 78 78 78 80 78 74
93 83 68 68 67 74 78 95 82 86 83 78 72 68 70 69 68 65 66 70 73 74 71 66 67 72 73 80 82 80 94 93 90 80 82 88 83 81 83 80 78 76 76
66 65 70 65 67 70 64 72 81 76 82 71 81 76 78 76 71 73 75 76 79 79 78 75 73 81 88 92 96 95 95 95 96 95 86 81 82 80 78 77 78 74 72
72 73 66 71 68 78 67 68 72 75 71 65 68 85 84 82 86 85 83 91 91 94 87 82 91 100 91 95 99 96 100 100 100 99 97 93 84 83 75 81 78 73 77
80 82 82 74 74 69 82 84 69 80 74 82 84 92 90 91 88 90 87 85 90 86 84 86 86 82 90 87 90 90 88 88 98 100 99 97 89 82 80 86 83 83 82
Wind_Speed
28 29 28 27 23 22 20 18 17 19 18 20 22 23 24 25 24 24 23 20 21 21 20 21 21 21 22 22 22 22 22 21 20 20 20 19 19 18 20 22 21 20 21
35 32 29 28 25 22 20 18 20 22 20 23 24 24 25 26 25 23 22 20 20 21 21 21 22 22 20 19 20 21 20 22 23 23 21 21 19 18 18 20 21 20 22
36 34 31 28 24 23 21 20 22 24 23 23 25 25 27 26 24 22 21 21 22 22 22 22 21 20 19 17 17 18 19 19 20 25 24 20 20 19 19 20 18 18 19
37 35 33 29 25 23 21 21 22 23 25 24 25 26 25 23 22 22 21 22 22 22 22 22 21 20 18 18 18 16 16 15 16 18 20 20 18 18 18 18 17 17 16
36 35 33 30 24 23 23 24 23 23 24 25 25 24 22 22 21 22 22 22 22 23 24 23 21 18 17 17 16 15 14 14 12 13 14 16 15 14 13 14 15 14 12
37 36 34 30 26 22 25 24 24 23 22 26 25 23 22 21 21 21 22 22 24 27 25 22 20 18 17 17 16 16 16 15 15 16 17 17 17 14 13 14 13 12 13
38 36 33 29 26 25 26 27 26 23 22 23 25 23 22 21 21 21 22 24 26 26 23 21 19 17 17 16 16 17 15 15 15 16 16 16 16 14 14 14 14 13 14
38 35 33 29 28 28 26 27 26 24 24 24 24 23 22 22 22 22 24 22 23 23 22 21 19 17 17 14 15 17 15 14 14 15 15 15 14 13 13 13 13 13 13
35 35 33 31 29 29 27 28 27 23 24 26 25 25 24 23 25 22 23 22 21 21 21 20 18 16 14 14 14 14 13 14 13 13 13 13 12 12 12 12 12 12 13
35 34 34 31 30 30 29 28 28 24 23 25 26 26 24 24 25 25 23 21 21 21 21 18 16 15 13 13 12 11 10 10 10 10 10 11 11 11 11 11 11 11 11
29 34 33 32 31 31 29 28 27 25 23 22 23 25 25 24 23 23 22 21 20 20 19 17 15 15 13 11 9 7 6 7 7 8 8 8 8 9 9 10 10 10 10
27 29 33 33 32 32 30 29 28 26 24 23 23 23 23 22 22 21 19 18 18 17 16 15 14 14 14 10 7 5 5 5 4 5 6 5 5 6 7 8 9 9 9
25 27 33 33 32 33 31 30 29 27 26 24 23 22 22 22 21 20 19 18 16 15 14 13 12 11 11 9 6 4 4 5 3 2 3 3 3 3 4 6 7 7 7
34 32 32 33 33 33 32 31 28 26 28 27 25 23 23 22 20 19 18 17 15 14 12 12 11 11 9 8 6 4 3 5 5 4 2 1 1 0 1 2 3 4 5
38 32 37 36 35 34 32 31 27 27 27 26 25 23 23 22 20 18 16 15 14 13 12 11 11 10 8 7 7 5 4 5 5 6 5 4 2 2 1 1 1 0 1
41 36 35 40 38 36 35 33 29 28 25 24 24 25 23 21 19 18 16 15 13 12 11 10 10 8 6 6 6 6 6 7 7 7 7 5 5 4 4 4 4 3 3
35 37 37 36 42 38 36 33 31 29 25 24 24 24 22 21 19 19 17 14 13 12 11 11 10 9 9 9 9 10 10 8 8 9 8 7 7 6 6 6 7 6 7
35 37 37 38 42 39 37 34 31 30 27 24 25 24 22 20 19 18 19 16 13 13 12 11 11 11 10 11 10 10 10 10 11 10 10 9 9 8 7 7 6 6 8
35 42 43 41 43 42 38 35 32 30 29 26 24 23 22 20 18 17 18 16 16 16 16 15 14 13 11 11 11 12 12 12 12 12 11 12 12 11 11 8 8 7 8
34 40 41 37 41 39 37 35 31 31 28 26 27 25 23 21 20 18 18 19 18 19 18 18 16 14 12 11 11 11 12 12 12 14 13 12 11 11 10 10 10 9 9
30 36 37 36 35 34 36 32 29 31 28 25 28 25 23 21 19 17 16 15 18 19 19 18 16 14 12 10 8 9 12 14 15 16 15 14 13 12 12 12 13 11 9
30 35 36 34 35 33 30 31 23 28 23 23 24 24 21 23 20 19 19 18 18 18 17 18 18 16 11 11 5 2 3 2 1 5 12 15 12 11 13 13 12 9 9
28 31 32 30 28 31 32 30 24 24 22 19 25 28 26 23 21 20 19 17 17 17 18 18 19 18 10 9 12 5 0 3 3 5 5 4 9 10 11 10 11 10 8
26 28 27 28 27 28 28 29 29 27 18 21 29 27 24 23 24 23 23 21 19 18 19 18 18 20 13 13 12 16 14 4 2 2 1 1 4 7 9 11 10 9 8
21 22 26 28 29 27 27 27 23 20 25 26 28 22 19 20 20 17 18 18 21 18 14 16 18 25 15 15 13 7 12 13 11 7 3 5 9 12 12 12 11 10 9
19 21 21 20 20 22 20 20 19 18 19 19 18 23 25 20 20 17 16 20 17 18 25 27 20 13 15 11 12 14 12 6 6 8 6 8 11 10 16 16 15 14 11
Wind_Direction
166 164 164 153 150 137 133 129 124 119 117 124 128 127 126 126 124 122 119 119 112 111 110 109 109 104 103 95 86 87 88 88 86 84 88 85 85 81 76 77 77 78 75
159 160 161 153 151 140 137 137 131 127 121 126 132 130 129 126 121 119 116 114 112 114 113 114 110 106 103 100 92 90 90 88 88 83 93 87 81 79 78 81 78 78 77
154 159 158 154 150 145 143 137 136 132 120 125 128 129 127 122 121 118 118 116 116 116 118 116 112 106 102 100 100 94 92 93 89 87 91 83 78 76 76 74 78 79 73
154 159 156 154 152 148 140 138 137 137 126 127 124 123 123 124 121 120 119 119 118 120 120 118 116 109 105 103 101 99 95 97 94 96 95 88 80 75 73 75 74 72 65
154 158 156 153 151 147 140 136 137 141 136 130 131 130 127 124 123 121 122 122 123 124 123 121 116 112 109 107 99 93 95 98 102 99 95 89 83 76 74 75 69 64 62
156 158 156 151 150 151 141 140 141 139 141 140 141 135 131 126 126 126 127 129 128 128 128 125 119 115 114 110 97 92 94 95 97 94 90 87 84 80 76 77 76 74 71
155 158 155 153 152 151 147 145 145 140 137 139 140 136 133 132 131 132 130 130 133 135 133 127 119 115 120 112 99 93 95 94 94 92 88 85 81 81 79 80 79 77 75
156 158 155 156 156 151 148 150 141 140 139 138 138 136 135 136 134 132 131 132 138 140 139 135 128 119 123 117 105 98 92 92 92 92 89 87 88 86 84 82 83 81 80
159 159 157 157 159 153 152 150 145 141 143 141 143 140 141 141 136 136 140 142 142 144 147 143 137 127 125 124 117 107 96 93 89 91 90 88 89 88 86 84 85 83 82
162 162 160 162 161 157 157 153 149 148 144 145 146 146 145 144 144 145 148 147 148 150 152 150 146 139 131 125 123 120 106 97 91 91 89 89 91 89 88 90 88 86 85
161 167 166 166 165 162 161 158 155 154 148 145 148 150 150 149 150 152 152 152 151 153 156 157 154 152 147 139 132 128 129 114 99 93 87 87 87 83 82 86 85 88 89
165 172 173 171 169 166 162 160 159 161 156 151 151 154 154 153 152 152 152 152 153 154 155 156 155 158 161 156 146 140 161 148 117 101 82 81 88 82 77 75 76 81 85
177 171 177 176 173 169 166 165 162 166 164 161 159 157 157 159 160 160 159 159 160 162 162 166 165 163 168 169 164 154 176 195 178 134 90 73 81 85 73 70 69 72 75
183 179 178 181 176 173 169 170 171 173 173 171 167 167 165 165 167 169 170 170 173 175 177 179 179 172 174 183 194 212 211 202 218 213 197 143 75 76 75 61 65 69 73
171 177 180 182 180 178 174 175 176 175 176 177 177 176 176 175 174 174 174 178 178 180 183 185 184 189 199 205 211 226 245 234 224 226 231 230 228 249 267 272 299 31 97
164 178 180 182 182 182 180 179 177 175 177 181 183 185 186 185 183 183 185 190 193 197 194 192 193 203 221 239 234 238 248 244 245 245 244 249 247 250 253 256 260 248 253
169 174 180 182 183 186 185 183 183 184 183 182 181 182 188 193 195 197 199 202 202 203 207 211 218 232 239 240 248 255 252 254 253 243 246 247 248 253 262 266 252 249 255
170 176 180 186 187 187 189 186 188 185 186 184 185 189 195 200 206 209 209 210 204 207 211 217 231 241 243 242 251 259 260 259 257 252 250 248 252 251 253 263 271 272 275
180 180 183 189 188 188 189 188 189 186 187 190 192 196 198 202 206 212 211 215 215 219 222 223 231 243 240 242 256 264 264 268 262 256 261 254 258 261 259 258 262 271 273
187 189 182 187 187 188 190 190 192 193 195 203 200 199 196 201 209 215 223 229 230 227 228 231 232 231 243 262 264 266 266 265 268 262 264 261 260 260 254 257 255 261 267
203 195 186 190 185 184 188 188 194 192 196 205 204 199 200 199 203 210 215 214 219 220 221 222 224 228 243 251 266 278 273 273 267 263 264 264 264 263 259 250 241 238 252
207 208 200 198 192 195 187 192 192 188 193 199 206 204 207 210 209 215 221 218 217 218 219 225 227 230 232 247 237 246 314 325 3 290 265 252 252 251 250 237 221 227 236
197 197 202 201 200 197 197 197 182 181 187 184 205 209 213 218 217 217 220 224 228 228 232 237 239 240 212 232 226 227 145 245 2 9 15 252 238 240 233 213 203 214 246
199 202 209 207 204 204 210 205 191 194 196 209 214 207 210 213 221 223 227 228 220 220 228 232 246 251 244 238 247 243 238 230 207 312 35 345 245 206 201 198 215 224 241
206 202 206 208 210 211 217 216 211 201 206 223 224 209 206 207 211 214 221 233 233 231 238 246 263 239 261 259 251 249 239 245 252 229 254 206 226 220 214 225 228 226 237
214 203 202 207 204 215 214 222 226 217 216 214 217 209 210 204 209 215 236 248 249 242 245 239 225 213 213 218 261 266 248 226 221 221 238 234 224 220 222 225 226 230 224